Weather History for Laramie, WY

Change the Weather History Date:

Thursday, August 8, 2013

  Actual Average Record
Temperature  
Mean Temperature 59 °F 64 °F  
Max Temperature 74 °F 79 °F 90 °F (1958)
Min Temperature 44 °F 48 °F 39 °F (1971)
Degree Days  
Heating Degree Days 6 2  
Month to date heating degree days 10 16  
Since 1 June heating degree days 135 326  
Since 1 July heating degree days 32 85  
Cooling Degree Days 0 1  
Month to date cooling degree days 10 8  
Year to date cooling degree days 104 55  
Since 1 June cooling degree days 104 55  
Growing Degree Days 8 (Base 50)    
Moisture  
Dew Point 44 °F    
Average Humidity 65    
Maximum Humidity 96    
Minimum Humidity 34    
Precipitation  
Precipitation T in 0.05 in 0.26 in (1979)
Month to date precipitation 0.12 0.38  
Year to date precipitation 5.42 7.30  
Sea Level Pressure  
Sea Level Pressure 30.02 in    
Wind  
Wind Speed 6 mph (South)    
Max Wind Speed 24 mph    
Max Gust Speed 30 mph    
Visibility 9 miles    
Events Rain , Thunderstorm    
T = Trace of Precipitation, MM = Missing Value Source: NWS Daily Summary

Daily Weather History Graph

Daily Weather History Graph

Search for Another Location

Airport:

Trip Planner

Search our weather history database for the weather conditions in past years. The results will help you decide how hot, cold, wet, or windy it might be!

Date:

Astronomy

Aug. 08, 2013 Rise Set
Actual Time 6:05 AM MDT 8:10 PM MDT
Civil Twilight 5:34 AM MDT 8:41 PM MDT
Nautical Twilight 4:57 AM MDT 9:18 PM MDT
Astronomical Twilight 4:16 AM MDT 9:58 PM MDT
Moon 7:56 AM MDT (8/8) 8:48 PM MDT (8/8)
Length of Visible Light 15h 06m
Length of Day
14h 05m
Waxing Crescent, 3% of the Moon is Illuminated
Aug 8
Waxing Crescent
Aug 14
First Quarter
Aug 20
Full
Aug 28
Last Quarter
Sep 5
New

Hourly Weather History & Observations

Time (MDT) Temp. Windchill Dew Point Humidity Pressure Visibility Wind Dir Wind Speed Gust Speed Precip Events Conditions
12:53 AM 51.1 °F - 50.0 °F 96% 29.87 in 4.0 mi South 10.4 mph - N/A   Clear
1:53 AM 48.9 °F - 46.9 °F 93% 29.89 in 4.0 mi East 4.6 mph - N/A   Clear
2:53 AM 51.1 °F - 43.0 °F 74% 29.87 in 10.0 mi East 3.5 mph - N/A   Clear
3:53 AM 50.0 °F - 41.0 °F 71% 29.87 in 10.0 mi SE 3.5 mph - N/A   Clear
4:53 AM 45.0 °F 42.6 °F 41.0 °F 86% 29.91 in 10.0 mi West 4.6 mph - N/A   Clear
5:53 AM 46.9 °F - 43.0 °F 86% 29.93 in 10.0 mi Calm Calm - N/A   Scattered Clouds
6:53 AM 46.0 °F 43.9 °F 44.1 °F 93% 29.96 in 5.0 mi East 4.6 mph - N/A   Clear
7:53 AM 50.0 °F - 45.0 °F 83% 29.98 in 10.0 mi WSW 6.9 mph - N/A   Scattered Clouds
8:53 AM 57.0 °F - 46.0 °F 67% 29.97 in 10.0 mi South 4.6 mph - N/A   Clear
9:53 AM 62.1 °F - 46.0 °F 56% 29.97 in 10.0 mi Calm Calm - N/A   Clear
10:53 AM 66.9 °F - 45.0 °F 45% 29.95 in 10.0 mi NNW 3.5 mph - N/A   Partly Cloudy
11:53 AM 71.1 °F - 43.0 °F 36% 29.94 in 10.0 mi NNE 6.9 mph - N/A   Partly Cloudy
12:53 PM 71.1 °F - 45.0 °F 39% 29.93 in 10.0 mi NNW 10.4 mph - N/A   Scattered Clouds
1:53 PM 71.1 °F - 41.0 °F 34% 29.94 in 10.0 mi East 8.1 mph - N/A   Overcast
2:50 PM 66.2 °F - 46.4 °F 49% 30.23 in 10.0 mi SSW 13.8 mph 17.3 mph 0.00 in Thunderstorm Thunderstorm
2:53 PM 66.9 °F - 48.0 °F 51% 29.95 in 10.0 mi SSW 13.8 mph 17.3 mph 0.00 in Thunderstorm Thunderstorm
3:09 PM 66.2 °F - 42.8 °F 43% 30.23 in 10.0 mi South 15.0 mph - N/A Thunderstorm Mostly Cloudy
3:29 PM 64.4 °F - 37.4 °F 37% 30.26 in 10.0 mi South 16.1 mph - N/A Thunderstorm Thunderstorm
3:53 PM 57.9 °F - 46.0 °F 65% 30.04 in 8.0 mi South 9.2 mph - 0.00 in Rain Light Rain
4:15 PM 55.4 °F - 46.4 °F 72% 30.24 in 10.0 mi SSW 24.2 mph 28.8 mph 0.00 in Thunderstorm Overcast
4:30 PM 57.2 °F - 44.6 °F 63% 30.25 in 10.0 mi SW 20.7 mph 29.9 mph 0.00 in   Scattered Clouds
4:53 PM 57.9 °F - 45.0 °F 62% 30.04 in 10.0 mi SW 19.6 mph - 0.00 in   Partly Cloudy
5:53 PM 60.1 °F - 44.1 °F 55% 30.06 in 10.0 mi WSW 5.8 mph - N/A   Partly Cloudy
6:53 PM 62.1 °F - 39.9 °F 44% 30.06 in 10.0 mi NNE 13.8 mph 17.3 mph N/A   Clear
7:53 PM 57.9 °F - 37.9 °F 47% 30.01 in 10.0 mi Calm Calm - N/A   Clear
8:53 PM 51.1 °F - 43.0 °F 74% 30.04 in 10.0 mi SW 4.6 mph - N/A   Clear
9:53 PM 46.9 °F - 42.1 °F 83% 30.07 in 10.0 mi SE 8.1 mph - N/A   Clear
10:53 PM 50.0 °F - 42.1 °F 74% 30.04 in 10.0 mi SE 4.6 mph - N/A   Partly Cloudy
11:53 PM 46.0 °F 44.8 °F 39.9 °F 79% 30.04 in 10.0 mi West 3.5 mph - N/A   Clear